Tiempo cada hora Dacha

Hoy, 23 Noviembre, Lunes

Tiempo Temperatura Precipitaciones Viento Presión Humedad
00:00 -4°C° 0 mm 2 mps 754 mmHg 92%
01:00 -4°C° 0 mm 3 mps 754 mmHg 91%
02:00 -4°C° 0 mm 3 mps 754 mmHg 90%
03:00 -4°C° 0 mm 4 mps 754 mmHg 86%
04:00 -4°C° 0 mm 5 mps 754 mmHg 83%
05:00 -4°C° 0 mm 5 mps 753 mmHg 81%
06:00 -4°C° 0 mm 5 mps 753 mmHg 79%
07:00 -3°C° 0 mm 6 mps 753 mmHg 75%
08:00 -3°C° 0 mm 6 mps 752 mmHg 72%
09:00 -3°C° 0 mm 7 mps 752 mmHg 68%
10:00 -1°C° 0 mm 7 mps 752 mmHg 67%
11:00 0°C° 0 mm 7 mps 752 mmHg 67%
12:00 +2°C° 0 mm 7 mps 752 mmHg 67%
13:00 +2°C° 0 mm 6 mps 752 mmHg 68%
14:00 +2°C° 0 mm 6 mps 752 mmHg 70%
15:00 +2°C° 0 mm 5 mps 752 mmHg 71%
16:00 +1°C° 0 mm 4 mps 752 mmHg 76%
17:00 +1°C° 0 mm 3 mps 752 mmHg 82%
18:00 -1°C° 0 mm 3 mps 751 mmHg 87%
19:00 -1°C° 0 mm 2 mps 751 mmHg 89%
20:00 -1°C° 0 mm 2 mps 751 mmHg 90%
21:00 -2°C° 0 mm 2 mps 751 mmHg 92%
22:00 -2°C° 0 mm 2 mps 751 mmHg 92%
23:00 -2°C° 0 mm 2 mps 751 mmHg 92%

Mañana, 24 Noviembre, Martes

Tiempo Temperatura Precipitaciones Viento Presión Humedad
00:00 -2°C° 0 mm 2 mps 751 mmHg 92%
01:00 -2°C° 0 mm 2 mps 751 mmHg 92%
02:00 -1°C° 0 mm 2 mps 750 mmHg 91%
03:00 -1°C° 0 mm 2 mps 750 mmHg 91%
04:00 -1°C° 0 mm 3 mps 750 mmHg 90%
05:00 -1°C° 0 mm 3 mps 749 mmHg 89%
06:00 0°C° 0 mm 3 mps 749 mmHg 88%
07:00 0°C° 0.2 mm 3 mps 749 mmHg 91%
08:00 -1°C° 0.2 mm 4 mps 749 mmHg 94%
09:00 0°C° 0.2 mm 4 mps 749 mmHg 97%
10:00 0°C° 0.4 mm 4 mps 748 mmHg 97%
11:00 0°C° 0.4 mm 4 mps 748 mmHg 97%
12:00 0°C° 0.4 mm 5 mps 748 mmHg 96%
13:00 +1°C° 0 mm 4 mps 748 mmHg 92%
14:00 +1°C° 0 mm 4 mps 748 mmHg 88%
15:00 +1°C° 0 mm 4 mps 748 mmHg 84%
16:00 +1°C° 0 mm 4 mps 748 mmHg 84%
17:00 0°C° 0 mm 4 mps 748 mmHg 83%
18:00 0°C° 0 mm 4 mps 748 mmHg 82%
19:00 0°C° 0 mm 4 mps 748 mmHg 85%
20:00 +1°C° 0 mm 3 mps 749 mmHg 88%
21:00 +1°C° 0 mm 3 mps 749 mmHg 91%
22:00 0°C° 0 mm 4 mps 749 mmHg 91%
23:00 0°C° 0 mm 4 mps 749 mmHg 91%

Pasado mañana, 25 Noviembre, Miércoles

Tiempo Temperatura Precipitaciones Viento Presión Humedad
00:00 0°C° 0 mm 4 mps 749 mmHg 91%
01:00 0°C° 0 mm 4 mps 749 mmHg 89%
02:00 -1°C° 0 mm 4 mps 749 mmHg 87%
03:00 -1°C° 0 mm 4 mps 749 mmHg 84%
04:00 -1°C° 0 mm 4 mps 749 mmHg 85%
05:00 -2°C° 0 mm 4 mps 749 mmHg 86%
06:00 -1°C° 0 mm 3 mps 748 mmHg 86%
07:00 -1°C° 0 mm 3 mps 749 mmHg 86%
08:00 -1°C° 0 mm 3 mps 749 mmHg 85%
09:00 -1°C° 0 mm 4 mps 749 mmHg 85%
10:00 -1°C° 0 mm 4 mps 749 mmHg 85%
11:00 0°C° 0 mm 4 mps 749 mmHg 85%
12:00 0°C° 0 mm 4 mps 749 mmHg 85%
13:00 +1°C° 0 mm 3 mps 749 mmHg 84%
14:00 +1°C° 0 mm 3 mps 750 mmHg 83%
15:00 +2°C° 0 mm 2 mps 750 mmHg 81%
16:00 +2°C° 0 mm 2 mps 750 mmHg 83%
17:00 +1°C° 0 mm 2 mps 750 mmHg 85%
18:00 -1°C° 0 mm 2 mps 750 mmHg 88%
19:00 -1°C° 0 mm 2 mps 750 mmHg 89%
20:00 -2°C° 0 mm 2 mps 751 mmHg 90%
21:00 -2°C° 0 mm 2 mps 751 mmHg 91%
22:00 -2°C° 0 mm 2 mps 751 mmHg 91%
23:00 -2°C° 0 mm 2 mps 751 mmHg 91%

26 Noviembre, Jueves

Tiempo Temperatura Precipitaciones Viento Presión Humedad
00:00 -2°C° 0 mm 2 mps 751 mmHg 91%
01:00 -2°C° 0 mm 2 mps 751 mmHg 91%
02:00 -2°C° 0 mm 2 mps 751 mmHg 91%
03:00 -2°C° 0 mm 2 mps 751 mmHg 91%
04:00 -2°C° 0.1 mm 2 mps 751 mmHg 93%
05:00 +1°C° 0.1 mm 1 mps 751 mmHg 95%
06:00 +1°C° 0.1 mm 1 mps 751 mmHg 97%
07:00 +1°C° 0.2 mm 1 mps 751 mmHg 98%
08:00 +2°C° 0.2 mm 1 mps 751 mmHg 98%
09:00 +1°C° 0.2 mm 2 mps 751 mmHg 98%
10:00 +2°C° 0.3 mm 2 mps 751 mmHg 98%
11:00 +2°C° 0.3 mm 2 mps 752 mmHg 97%
12:00 +2°C° 0.3 mm 2 mps 752 mmHg 97%
13:00 +2°C° 0 mm 2 mps 752 mmHg 96%
14:00 +3°C° 0 mm 2 mps 752 mmHg 96%
15:00 +3°C° 0 mm 2 mps 752 mmHg 95%
16:00 +3°C° 0 mm 1 mps 752 mmHg 95%
17:00 +3°C° 0 mm 1 mps 752 mmHg 95%
18:00 +3°C° 0 mm 1 mps 752 mmHg 96%
19:00 +3°C° 0 mm 1 mps 752 mmHg 95%
20:00 +3°C° 0 mm 1 mps 752 mmHg 95%
21:00 +3°C° 0 mm 1 mps 752 mmHg 95%
22:00 +3°C° 0 mm 1 mps 752 mmHg 94%
23:00 +2°C° 0 mm 2 mps 752 mmHg 94%

27 Noviembre, Viernes

Tiempo Temperatura Precipitaciones Viento Presión Humedad
00:00 +2°C° 0 mm 2 mps 752 mmHg 93%
01:00 +3°C° 0 mm 2 mps 752 mmHg 92%
02:00 +3°C° 0 mm 2 mps 751 mmHg 92%
03:00 +2°C° 0 mm 3 mps 751 mmHg 91%
04:00 +2°C° 0 mm 3 mps 751 mmHg 90%
05:00 +2°C° 0 mm 3 mps 751 mmHg 88%
06:00 +1°C° 0 mm 4 mps 751 mmHg 87%
07:00 +1°C° 0 mm 4 mps 751 mmHg 85%
08:00 +1°C° 0 mm 4 mps 751 mmHg 83%
09:00 +2°C° 0 mm 5 mps 751 mmHg 81%
10:00 +3°C° 0 mm 5 mps 750 mmHg 76%
11:00 +4°C° 0 mm 6 mps 750 mmHg 71%
12:00 +5°C° 0 mm 6 mps 750 mmHg 66%
13:00 +5°C° 0 mm 6 mps 750 mmHg 65%
14:00 +5°C° 0 mm 6 mps 750 mmHg 63%
15:00 +7°C° 0 mm 6 mps 749 mmHg 62%
16:00 +5°C° 0 mm 6 mps 749 mmHg 67%
17:00 +4°C° 0 mm 6 mps 749 mmHg 72%
18:00 +4°C° 0 mm 6 mps 749 mmHg 77%
19:00 +4°C° 0 mm 6 mps 749 mmHg 77%
20:00 +4°C° 0 mm 6 mps 749 mmHg 77%
21:00 +4°C° 0 mm 6 mps 749 mmHg 77%
22:00 +4°C° 0 mm 6 mps 748 mmHg 78%
23:00 +4°C° 0 mm 6 mps 748 mmHg 78%

28 Noviembre, Sábado

Tiempo Temperatura Precipitaciones Viento Presión Humedad
00:00 +4°C° 0 mm 6 mps 748 mmHg 78%
01:00 +5°C° 0 mm 6 mps 748 mmHg 78%
02:00 +5°C° 0 mm 6 mps 748 mmHg 77%
03:00 +5°C° 0 mm 6 mps 748 mmHg 76%
04:00 +5°C° 0 mm 6 mps 747 mmHg 76%
05:00 +5°C° 0 mm 6 mps 747 mmHg 76%
06:00 +5°C° 0 mm 6 mps 747 mmHg 76%
07:00 +5°C° 0.1 mm 6 mps 747 mmHg 77%
08:00 +5°C° 0.1 mm 6 mps 747 mmHg 78%
09:00 +6°C° 0.1 mm 5 mps 747 mmHg 78%
10:00 +6°C° 0.2 mm 5 mps 747 mmHg 78%
11:00 +6°C° 0.2 mm 5 mps 747 mmHg 78%
12:00 +6°C° 0.2 mm 4 mps 748 mmHg 78%
13:00 +6°C° 0.4 mm 4 mps 747 mmHg 80%
14:00 +7°C° 0.4 mm 3 mps 747 mmHg 82%
15:00 +7°C° 0.4 mm 3 mps 747 mmHg 84%
16:00 +7°C° 0.3 mm 2 mps 748 mmHg 85%
17:00 +6°C° 0.3 mm 2 mps 748 mmHg 86%
18:00 +6°C° 0.3 mm 2 mps 748 mmHg 86%
19:00 +5°C° 0.2 mm 2 mps 748 mmHg 87%
20:00 +5°C° 0.2 mm 2 mps 748 mmHg 87%
21:00 +4°C° 0.2 mm 2 mps 748 mmHg 87%
22:00 +4°C° 0.4 mm 2 mps 748 mmHg 88%
23:00 +4°C° 0.4 mm 2 mps 748 mmHg 89%
Mostrar más

Necesitamos Su Consentimiento

Meteoprog y nuestros Proveedores de Servicios pueden almacenar y acceder a sus datos personales como cookies, identificadores de dispositivo u otras tecnologías similares de su dispositivo y procesar dichos datos para personalizar contenido y anuncios, además de ofrecer funciones de redes sociales y analizar el tráfico.

  • Almacenar y/o acceder a información en su dispositivo

    Se puede almacenar o acceder a cookies, identificadores de dispositivo u otra información de su dispositivo para los fines anteriormente indicados.

  • Anuncios y contenido personalizados, medición de anuncios y contenido, percepciones del público, y desarrollo de productos

    Los anuncios y el contenido pueden personalizarse en base a su perfil. Se pueden añadir más datos para personalizar mejor los anuncios y contenidos. Se puede medir el rendimiento de los anuncios y contenidos. Se puede obtener la percepción sobre el público que ha visto los anuncios y contenidos. Dichos datos pueden usarse para desarrollar o mejorar la experiencia del usuario, sistemas y software.

Al hacer clic en ‘Estoy De Acuerdo’ usted permitirá el uso de las cookies, identificadores de dispositivo, balizas web u otras tecnologías similares indicadas. Su configuración puede cambiarse desde el navegador de su dispositivo.

Para ciertos fines, los intereses legítimos pueden ser considerados por encima del consentimiento. Puede leer más sobre ello en nuestra Política de Privacidad y Cookies.